DW9686 Weather Reports


time (UTC)temp
F
wind
direction
speed
knots
gust
knots
rain 1hr
in
rain 24hr
in
rain mn
in
humidity
%
barometer
mb
20260506181530 72 223 6.1 10.4 0.00 0.00 0.00 60 1013.0
20260506180032 72 193 6.1 12.2 0.00 0.00 0.00 59 1013.1
20260506174531 71 216 7.0 12.2 0.00 0.00 0.00 61 1013.2
20260506173045 70 198 6.1 12.2 0.00 0.00 0.00 64 1013.2
20260506171530 70 203 7.0 12.2 0.00 0.00 0.00 64 1013.4
20260506170031 69 206 6.1 10.4 0.00 0.00 0.00 66 1013.5
20260506164534 69 202 7.0 9.6 0.00 0.00 0.00 65 1013.6
20260506163037 68 202 7.0 10.4 0.00 0.00 0.00 67 1013.5
20260506161531 67 222 5.2 7.8 0.00 0.00 0.00 68 1013.6
20260506160032 66 191 4.3 7.8 0.00 0.00 0.00 71 1013.6
20260506154534 65 184 5.2 9.6 0.00 0.00 0.00 72 1013.4
20260506153030 63 116 3.5 7.0 0.00 0.00 0.00 77 1013.5
20260506151536 62 101 2.6 6.1 0.00 0.00 0.00 79 1013.3
20260506150030 61 94 1.7 5.2 0.00 0.00 0.00 80 1013.4
20260506144538 60 85 2.6 5.2 0.00 0.00 0.00 81 1013.3
20260506143033 59 85 1.7 5.2 0.00 0.00 0.00 80 1013.4
20260506141532 58 0 0.0 3.5 0.00 0.00 0.00 80 1013.2
20260506140033 58 85 0.9 2.6 0.00 0.00 0.00 80 1013.1
20260506134531 58 85 0.0 2.6 0.00 0.00 0.00 81 1012.9
20260506133032 57 0 0.0 0.0 0.00 0.00 0.00 81 1012.7
20260506131541 56 0 0.0 0.0 0.00 0.00 0.00 82 1012.7
20260506130037 55 0 0.0 0.0 0.00 0.00 0.00 82 1012.5
20260506124530 55 0 0.0 0.0 0.00 0.00 0.00 82 1012.4
20260506123030 55 0 0.0 0.0 0.00 0.00 0.00 80 1012.1
20260506121533 55 0 0.0 0.0 0.00 0.00 0.00 79 1012.0
20260506120034 56 0 0.0 0.0 0.00 0.00 0.00 77 1011.8
20260506114535 56 0 0.0 0.0 0.00 0.00 0.00 77 1011.6
20260506113030 56 0 0.0 0.0 0.00 0.00 0.00 76 1011.6
20260506111529 56 0 0.0 0.0 0.00 0.00 0.00 74 1011.4
20260506110034 58 0 0.0 0.0 0.00 0.00 0.00 73 1011.4
20260506104531 58 0 0.0 0.0 0.00 0.00 0.00 73 1011.3
20260506103043 58 0 0.0 0.0 0.00 0.00 0.00 73 1011.1
20260506101543 58 0 0.0 0.0 0.00 0.00 0.00 72 1011.1
20260506100045 58 0 0.0 0.0 0.00 0.00 0.00 71 1011.1
20260506094530 59 0 0.0 0.0 0.00 0.00 0.00 69 1011.0
20260506093040 60 0 0.0 0.0 0.00 0.00 0.00 68 1011.1
20260506091535 61 0 0.0 0.0 0.00 0.00 0.00 66 1011.2
20260506090032 61 0 0.0 0.0 0.00 0.00 0.00 65 1011.1
20260506084532 62 0 0.0 0.0 0.00 0.00 0.00 65 1011.0
20260506083032 62 0 0.0 0.0 0.00 0.00 0.00 66 1010.9
20260506081539 62 0 0.0 0.0 0.00 0.00 0.00 66 1010.9
20260506073042 62 0 0.0 0.0 0.00 0.00 0.00 69 1010.7
20260506071537 62 0 0.0 0.0 0.00 0.00 0.00 70 1010.8
20260506061531 65 0 0.0 0.9 0.00 0.00 0.00 66 1010.4
20260506044604 67 85 0.9 2.6 0.00 0.00 0.00 63 1010.1
20260506043032 68 0 0.0 0.0 0.00 0.00 0.00 61 1010.0
20260506041531 71 0 0.0 0.9 0.00 0.00 0.00 55 1009.9
20260506040031 71 85 0.9 2.6 0.00 0.00 0.00 54 1009.7
20260506034559 71 0 0.0 0.0 0.00 0.00 0.00 57 1009.6
20260506033032 71 0 0.0 0.0 0.00 0.00 0.00 57 1009.5
20260506031531 72 0 0.0 0.0 0.00 0.00 0.00 57 1009.5
20260506030030 73 0 0.0 1.7 0.00 0.00 0.00 57 1009.4
20260506024533 74 0 0.9 2.6 0.00 0.00 0.00 56 1009.4
20260506023035 76 85 1.7 5.2 0.00 0.00 0.00 54 1009.2
20260506021533 77 76 0.9 2.6 0.00 0.00 0.00 49 1009.4
20260506020031 81 76 1.7 4.3 0.00 0.00 0.00 44 1009.2
20260506014533 83 58 0.9 1.7 0.00 0.00 0.00 33 1009.2
20260506013038 84 0 0.0 3.5 0.00 0.00 0.00 32 1009.2
20260506011532 84 0 0.0 2.6 0.00 0.00 0.00 29 1009.2
20260506010032 83 60 0.0 3.5 0.00 0.00 0.00 29 1009.2
20260506004556 83 57 0.9 5.2 0.00 0.00 0.00 29 1009.4
20260506003045 83 49 2.6 6.1 0.00 0.00 0.00 31 1009.3
20260506001539 83 350 4.3 7.8 0.00 0.00 0.00 31 1009.4
20260506000032 84 51 2.6 6.1 0.00 0.00 0.00 31 1009.7
20260505234555 83 5 2.6 7.0 0.00 0.00 0.00 31 1009.8
20260505233037 83 345 4.3 10.4 0.00 0.00 0.00 30 1009.9
20260505231534 83 298 2.6 7.8 0.00 0.00 0.00 32 1010.0
20260505230040 82 0 1.7 8.7 0.00 0.00 0.00 32 1010.1
20260505224539 83 352 2.6 9.6 0.00 0.00 0.00 34 1010.1
20260505223035 82 28 2.6 7.0 0.00 0.00 0.00 35 1010.4
20260505221532 82 47 2.6 8.7 0.00 0.00 0.00 37 1010.4
20260505220046 81 311 4.3 7.8 0.00 0.00 0.00 37 1010.6
20260505214538 81 44 5.2 8.7 0.00 0.00 0.00 37 1010.8
20260505213036 81 44 2.6 7.8 0.00 0.00 0.00 40 1010.8
20260505211545 80 42 2.6 9.6 0.00 0.00 0.00 43 1010.9
20260505210031 80 332 3.5 9.6 0.00 0.00 0.00 43 1011.0
20260505204535 79 34 4.3 7.8 0.00 0.00 0.00 44 1011.1
20260505203037 79 307 4.3 8.7 0.00 0.00 0.00 44 1011.2
20260505201537 78 326 6.1 9.6 0.00 0.00 0.00 45 1011.2
20260505200035 77 309 6.1 11.3 0.00 0.00 0.00 46 1011.4
20260505194536 77 299 3.5 8.7 0.00 0.00 0.00 50 1011.3
20260505193041 76 330 3.5 9.6 0.00 0.00 0.00 51 1011.4
20260505191544 75 284 4.3 8.7 0.00 0.00 0.00 54 1011.5
20260505190035 74 288 4.3 8.7 0.00 0.00 0.00 54 1011.6
20260505184535 73 322 4.3 8.7 0.00 0.00 0.00 55 1011.7
20260505183032 73 302 5.2 8.7 0.00 0.00 0.00 56 1011.7